FW7499 Weather Reports


time (UTC)temp
F
wind
direction
speed
knots
gust
knots
rain 1hr
in
rain 24hr
in
rain mn
in
humidity
%
barometer
mb
20260510060018 51 328 0.0 0.9 0.00 0.00 0.00 52 1018.3
20260510055507 52 328 0.0 1.7 0.00 0.00 0.00 52 1018.1
20260510055004 52 328 0.0 1.7 0.00 0.00 0.00 50 1018.0
20260510054522 53 328 0.0 2.6 0.00 0.00 0.00 49 1017.8
20260510054008 53 328 0.0 2.6 0.00 0.00 0.00 48 1017.5
20260510053507 52 327 0.9 2.6 0.00 0.00 0.00 49 1017.3
20260510053019 52 330 0.0 1.7 0.00 0.00 0.00 49 1017.3
20260510052508 53 330 0.0 1.7 0.00 0.00 0.00 49 1017.2
20260510052007 53 330 0.0 1.7 0.00 0.00 0.00 48 1017.2
20260510051512 53 330 0.0 1.7 0.00 0.00 0.00 47 1017.0
20260510051006 54 330 0.9 1.7 0.00 0.00 0.00 47 1016.9
20260510050508 54 330 0.0 1.7 0.00 0.00 0.00 46 1017.0
20260510050016 54 330 0.0 0.9 0.00 0.00 0.00 45 1016.9
20260510045507 55 330 0.0 1.7 0.00 0.00 0.00 45 1016.8
20260510045007 55 330 0.0 2.6 0.00 0.00 0.00 45 1016.7
20260510044512 55 330 0.9 2.6 0.00 0.00 0.00 44 1016.6
20260510044007 55 330 0.0 2.6 0.00 0.00 0.00 46 1016.5
20260510043510 56 330 0.9 2.6 0.00 0.00 0.00 44 1016.5
20260510043008 56 330 0.9 2.6 0.00 0.00 0.00 44 1016.5
20260510042505 56 327 0.0 1.7 0.00 0.00 0.00 45 1016.3
20260510042002 56 327 0.0 1.7 0.00 0.00 0.00 44 1016.2
20260510041502 56 327 0.0 1.7 0.00 0.00 0.00 46 1016.2
20260510041003 57 327 0.0 3.5 0.00 0.00 0.00 44 1016.1
20260510040506 57 327 0.9 3.5 0.00 0.00 0.00 42 1016.0
20260510040012 57 323 0.9 3.5 0.00 0.00 0.00 44 1015.9
20260510035503 57 341 0.0 2.6 0.00 0.00 0.00 43 1015.9
20260510035005 57 355 0.0 3.5 0.00 0.00 0.00 44 1015.8
20260510034512 58 355 0.0 3.5 0.00 0.00 0.00 43 1015.7
20260510034010 57 352 0.0 1.7 0.00 0.00 0.00 45 1015.6
20260510033507 58 352 0.0 3.5 0.00 0.00 0.00 44 1015.6
20260510033004 59 352 0.0 3.5 0.00 0.00 0.00 42 1015.5
20260510032510 59 355 0.0 3.5 0.00 0.00 0.00 43 1015.4
20260510032007 59 343 0.0 1.7 0.00 0.00 0.00 42 1015.3
20260510031516 59 342 0.0 3.5 0.00 0.00 0.00 43 1015.3
20260510031004 59 10 0.0 3.5 0.00 0.00 0.00 42 1015.1
20260510030502 59 334 0.0 1.7 0.00 0.00 0.00 43 1015.0
20260510030011 60 333 0.0 1.7 0.00 0.00 0.00 42 1014.9
20260510025503 60 333 0.0 2.6 0.00 0.00 0.00 41 1014.9
20260510025003 60 327 0.9 2.6 0.00 0.00 0.00 41 1014.7
20260510024510 60 326 0.0 0.9 0.00 0.00 0.00 42 1014.5
20260510024003 60 326 0.0 0.9 0.00 0.00 0.00 42 1014.4
20260510023505 61 326 0.0 1.7 0.00 0.00 0.00 40 1014.3
20260510023021 61 326 0.0 1.7 0.00 0.00 0.00 41 1014.2
20260510022504 61 326 0.0 1.7 0.00 0.00 0.00 40 1014.1
20260510022008 62 326 0.0 1.7 0.00 0.00 0.00 40 1014.1
20260510021518 62 325 0.0 2.6 0.00 0.00 0.00 38 1013.9
20260510021008 62 325 0.0 2.6 0.00 0.00 0.00 40 1013.8
20260510020509 62 338 0.9 3.5 0.00 0.00 0.00 39 1013.6
20260510020014 63 338 0.9 3.5 0.00 0.00 0.00 38 1013.6
20260510015507 63 339 0.0 2.6 0.00 0.00 0.00 38 1013.4
20260510015005 63 339 0.9 2.6 0.00 0.00 0.00 38 1013.3
20260510014512 63 321 0.0 1.7 0.00 0.00 0.00 39 1013.2
20260510014006 64 329 0.0 2.6 0.00 0.00 0.00 38 1013.2
20260510013507 64 330 0.0 2.6 0.00 0.00 0.00 39 1013.0
20260510013008 64 135 0.0 5.2 0.00 0.00 0.00 39 1012.9
20260510012507 65 355 0.0 5.2 0.00 0.00 0.00 38 1012.8
20260510012009 65 350 0.0 3.5 0.00 0.00 0.00 38 1012.7
20260510011513 66 330 0.0 4.3 0.00 0.00 0.00 37 1012.6
20260510011007 66 346 1.7 4.3 0.00 0.00 0.00 37 1012.5
20260510010504 67 335 0.9 3.5 0.00 0.00 0.00 40 1012.3
20260510010027 67 105 0.9 4.3 0.00 0.00 0.00 40 1012.3
20260510005507 67 304 0.9 4.3 0.00 0.00 0.00 41 1012.2
20260510005009 67 22 0.9 4.3 0.00 0.00 0.00 44 1012.2
20260510004524 67 344 0.9 3.5 0.00 0.00 0.00 42 1012.1
20260510004007 67 345 0.9 5.2 0.00 0.00 0.00 42 1012.1
20260510003503 67 11 0.9 5.2 0.00 0.00 0.00 41 1012.1
20260510003013 67 315 0.0 2.6 0.00 0.00 0.00 42 1011.9
20260510002508 68 355 0.0 3.5 0.00 0.00 0.00 41 1012.0
20260510002009 68 317 1.7 3.5 0.00 0.00 0.00 41 1011.9
20260510001517 68 350 0.9 3.5 0.00 0.00 0.00 44 1011.9
20260510001010 68 360 0.0 3.5 0.00 0.00 0.00 44 1011.9
20260510000503 68 355 0.9 3.5 0.00 0.00 0.00 43 1012.0
20260510000016 68 302 0.9 3.5 0.00 0.00 0.00 44 1011.9
20260509235506 68 337 0.0 1.7 0.00 0.00 0.00 49 1011.9
20260509235013 68 329 0.0 2.6 0.00 0.00 0.00 47 1011.9
20260509234522 68 329 0.0 3.5 0.00 0.00 0.00 46 1011.9
20260509234010 68 341 0.9 3.5 0.00 0.00 0.00 47 1011.9
20260509233505 68 26 0.0 3.5 0.00 0.00 0.00 46 1011.9
20260509233030 68 323 0.0 3.5 0.00 0.00 0.00 46 1011.8
20260509232503 69 350 0.9 4.3 0.00 0.00 0.00 46 1011.8
20260509232008 68 309 1.7 4.3 0.00 0.00 0.00 46 1011.8
20260509231514 69 301 1.7 5.2 0.00 0.00 0.00 46 1011.8
20260509231010 69 342 0.0 5.2 0.00 0.00 0.00 46 1011.8
20260509230508 69 350 1.7 4.3 0.00 0.00 0.00 46 1011.8
20260509230020 69 351 1.7 5.2 0.00 0.00 0.00 46 1011.8
20260509225508 69 331 0.9 6.1 0.00 0.00 0.00 46 1011.7
20260509225005 69 318 0.9 6.1 0.00 0.00 0.00 46 1011.8
20260509224505 69 280 2.6 7.0 0.00 0.00 0.00 46 1011.7
20260509224002 70 338 3.5 7.0 0.00 0.00 0.00 46 1011.6
20260509223507 70 312 2.6 7.8 0.00 0.00 0.00 47 1011.7
20260509223004 70 29 0.9 7.8 0.00 0.00 0.00 45 1011.6
20260509222502 71 360 0.9 9.6 0.00 0.00 0.00 45 1011.5
20260509222003 70 235 2.6 9.6 0.00 0.00 0.00 47 1011.5
20260509221503 70 287 3.5 8.7 0.00 0.00 0.00 47 1011.4
20260509221003 70 302 2.6 8.7 0.00 0.00 0.00 46 1011.4
20260509220503 70 302 2.6 8.7 0.00 0.00 0.00 47 1011.4
20260509220016 70 302 3.5 8.7 0.00 0.00 0.00 46 1011.3
20260509215504 70 311 2.6 8.7 0.00 0.00 0.00 48 1011.2
20260509215001 70 342 1.7 7.0 0.00 0.00 0.00 46 1011.1
20260509214501 69 345 1.7 6.1 0.00 0.00 0.00 47 1011.1
20260509214002 69 36 0.9 5.2 0.00 0.00 0.00 46 1011.0
20260509213503 69 5 2.6 8.7 0.00 0.00 0.00 45 1011.1
20260509213007 69 314 4.3 8.7 0.00 0.00 0.00 45 1011.0
20260509212502 69 360 3.5 9.6 0.00 0.00 0.00 44 1011.0
20260509212003 70 314 4.3 9.6 0.00 0.00 0.00 43 1010.9
20260509211505 71 332 4.3 12.2 0.00 0.00 0.00 44 1010.8
20260509211003 71 332 1.7 12.2 0.00 0.00 0.00 43 1010.8
20260509210504 71 342 5.2 12.2 0.00 0.00 0.00 42 1010.7
20260509210017 71 360 1.7 9.6 0.00 0.00 0.00 41 1010.6
20260509205503 71 318 4.3 11.3 0.00 0.00 0.00 40 1010.6
20260509205003 72 325 5.2 12.2 0.00 0.00 0.00 39 1010.6
20260509204505 72 325 4.3 12.2 0.00 0.00 0.00 39 1010.5
20260509204002 72 301 4.3 13.9 0.00 0.00 0.00 42 1010.5
20260509203501 72 346 4.3 13.9 0.00 0.00 0.00 41 1010.2
20260509203003 73 329 5.2 13.9 0.00 0.00 0.00 41 1010.1
20260509202503 74 22 3.5 11.3 0.00 0.00 0.00 40 1009.9
20260509202006 76 347 4.3 10.4 0.00 0.00 0.00 37 1009.8
20260509201510 76 329 3.5 9.6 0.00 0.00 0.00 37 1009.7
20260509201009 78 311 4.3 9.6 0.00 0.00 0.00 34 1009.6
20260509200508 77 315 2.6 8.7 0.00 0.00 0.00 33 1009.5
20260509200013 76 291 3.5 7.8 0.00 0.00 0.00 33 1009.5
20260509195511 77 23 1.7 7.0 0.00 0.00 0.00 33 1009.4
20260509195003 77 318 2.6 7.8 0.00 0.00 0.00 30 1009.3
20260509194522 77 332 2.6 8.7 0.00 0.00 0.00 31 1009.2
20260509194004 76 313 2.6 8.7 0.00 0.00 0.00 36 1009.1
20260509193514 75 355 1.7 5.2 0.00 0.00 0.00 33 1009.1
20260509193007 75 343 0.9 5.2 0.00 0.00 0.00 31 1009.0
20260509192502 76 346 0.9 5.2 0.00 0.00 0.00 32 1009.0
20260509192002 75 338 0.9 5.2 0.00 0.00 0.00 32 1009.0
20260509191503 76 80 0.0 7.0 0.00 0.00 0.00 29 1008.9
20260509191006 77 24 3.5 7.8 0.00 0.00 0.00 30 1008.9
20260509190503 77 327 3.5 7.8 0.00 0.00 0.00 30 1009.0
20260509190012 78 344 0.9 4.3 0.00 0.00 0.00 29 1008.9
20260509185503 78 326 1.7 4.3 0.00 0.00 0.00 34 1008.8
20260509185010 77 301 0.9 5.2 0.00 0.00 0.00 32 1008.9
20260509184507 77 348 0.9 7.8 0.00 0.00 0.00 33 1008.9
20260509184009 76 344 2.6 7.8 0.00 0.00 0.00 29 1009.0
20260509183507 78 352 1.7 6.1 0.00 0.00 0.00 30 1008.9
20260509183004 78 348 1.7 4.3 0.00 0.00 0.00 31 1008.8
20260509182505 78 5 1.7 6.1 0.00 0.00 0.00 28 1008.9
20260509182006 77 302 2.6 7.0 0.00 0.00 0.00 30 1008.9
20260509181513 77 345 1.7 7.0 0.00 0.00 0.00 31 1008.8
20260509181006 77 321 2.6 7.0 0.00 0.00 0.00 34 1008.9
20260509180503 76 321 1.7 7.8 0.00 0.00 0.00 32 1008.8
20260509180008 75 309 1.7 7.8 0.00 0.00 0.00 33 1008.8
20260509175504 75 338 2.6 7.8 0.00 0.00 0.00 28 1008.8
20260509175004 75 9 1.7 7.0 0.00 0.00 0.00 35 1008.8
20260509174505 75 340 0.9 5.2 0.00 0.00 0.00 31 1008.8
20260509174003 75 338 1.7 5.2 0.00 0.00 0.00 35 1008.9
20260509173507 75 74 0.0 4.3 0.00 0.00 0.00 34 1008.9
20260509173018 75 19 0.0 2.6 0.00 0.00 0.00 31 1008.9
20260509172503 75 59 0.9 4.3 0.00 0.00 0.00 35 1009.0
20260509172006 75 314 0.9 7.0 0.00 0.00 0.00 38 1009.1
20260509171515 74 323 2.6 7.0 0.00 0.00 0.00 38 1009.1
20260509171004 74 320 1.7 7.0 0.00 0.00 0.00 31 1009.1
20260509170507 74 333 1.7 4.3 0.00 0.00 0.00 32 1009.2
20260509170020 74 338 0.9 3.5 0.00 0.00 0.00 34 1009.2
20260509165502 73 319 0.9 7.0 0.00 0.00 0.00 31 1009.1
20260509165007 73 331 1.7 7.0 0.00 0.00 0.00 37 1009.1
20260509164511 73 344 2.6 5.2 0.00 0.00 0.00 33 1009.1
20260509164004 73 296 1.7 6.1 0.00 0.00 0.00 36 1009.1
20260509163505 73 305 1.7 6.1 0.00 0.00 0.00 37 1009.0
20260509163012 72 306 2.6 6.1 0.00 0.00 0.00 36 1009.0
20260509162508 72 317 1.7 7.8 0.00 0.00 0.00 35 1008.9
20260509162007 71 342 3.5 7.8 0.00 0.00 0.00 34 1009.1
20260509161519 71 349 0.9 7.0 0.00 0.00 0.00 34 1008.9
20260509161009 71 5 2.6 8.7 0.00 0.00 0.00 35 1009.0
20260509160507 71 301 2.6 8.7 0.00 0.00 0.00 35 1008.9
20260509160023 72 341 2.6 7.0 0.00 0.00 0.00 38 1009.0
20260509155509 71 326 0.9 4.3 0.00 0.00 0.00 39 1009.0
20260509155008 71 340 1.7 7.0 0.00 0.00 0.00 38 1009.0
20260509154523 70 13 1.7 10.4 0.00 0.00 0.00 39 1009.2
20260509154008 70 341 4.3 10.4 0.00 0.00 0.00 38 1009.3
20260509153504 70 341 4.3 7.8 0.00 0.00 0.00 37 1009.3
20260509153015 70 306 3.5 7.8 0.00 0.00 0.00 38 1009.1
20260509152504 70 334 0.0 9.6 0.00 0.00 0.00 40 1009.1
20260509152009 70 333 0.9 9.6 0.00 0.00 0.00 39 1009.1
20260509151519 70 342 1.7 7.0 0.00 0.00 0.00 40 1009.1
20260509151007 69 337 2.6 7.0 0.00 0.00 0.00 42 1009.1
20260509150508 68 360 3.5 11.3 0.00 0.00 0.00 42 1009.2
20260509150013 68 286 3.5 11.3 0.00 0.00 0.00 41 1008.8
20260509145509 70 355 3.5 8.7 0.00 0.00 0.00 40 1009.0
20260509145010 69 306 0.9 3.5 0.00 0.00 0.00 36 1008.1
20260509144513 69 355 0.0 3.5 0.00 0.00 0.00 40 1007.9
20260509144007 67 234 0.0 3.5 0.00 0.00 0.00 40 1007.9
20260509143509 66 297 0.9 7.0 0.00 0.00 0.00 43 1007.9
20260509143012 65 343 0.0 7.0 0.00 0.00 0.00 42 1008.0
20260509142503 65 5 0.0 6.1 0.00 0.00 0.00 44 1008.1
20260509142009 66 219 0.0 6.1 0.00 0.00 0.00 43 1008.1
20260509141530 65 285 0.9 4.3 0.00 0.00 0.00 45 1008.1
20260509141008 64 292 0.0 3.5 0.00 0.00 0.00 46 1008.1
20260509140505 65 193 0.0 1.7 0.00 0.00 0.00 45 1008.0
20260509140021 64 332 0.0 1.7 0.00 0.00 0.00 50 1008.0
20260509135507 63 332 0.0 3.5 0.00 0.00 0.00 51 1008.1
20260509135011 62 243 0.0 3.5 0.00 0.00 0.00 52 1008.1
20260509134504 60 260 0.0 1.7 0.00 0.00 0.00 54 1008.1
20260509134003 59 306 0.0 1.7 0.00 0.00 0.00 53 1008.0
20260509133503 59 320 0.0 0.9 0.00 0.00 0.00 53 1008.0
20260509133003 59 320 0.0 0.9 0.00 0.00 0.00 56 1008.0
20260509132505 59 319 0.0 1.7 0.00 0.00 0.00 61 1007.9
20260509132002 56 319 0.0 1.7 0.00 0.00 0.00 68 1007.9
20260509131508 55 321 0.0 0.0 0.00 0.00 0.00 74 1008.0
20260509131005 54 321 0.0 0.0 0.00 0.00 0.00 78 1008.0
20260509130504 54 321 0.0 0.0 0.00 0.00 0.00 78 1008.0
20260509130016 53 321 0.0 0.9 0.00 0.00 0.00 78 1007.9
20260509125509 52 321 0.0 0.9 0.00 0.00 0.00 80 1007.9
20260509125005 51 321 0.0 0.9 0.00 0.00 0.00 83 1007.9
20260509124504 50 321 0.0 0.9 0.00 0.00 0.00 84 1008.0
20260509124003 50 321 0.0 0.9 0.00 0.00 0.00 81 1008.0
20260509123503 49 321 0.0 0.9 0.00 0.00 0.00 83 1008.0
20260509123007 48 321 0.0 0.0 0.00 0.00 0.00 84 1007.9
20260509122503 48 321 0.0 0.0 0.00 0.00 0.00 81 1007.8
20260509122003 48 321 0.0 0.9 0.00 0.00 0.00 78 1007.9
20260509121505 48 321 0.0 0.9 0.00 0.00 0.00 77 1007.9
20260509121003 47 321 0.0 0.0 0.00 0.00 0.00 78 1007.9
20260509120506 46 321 0.0 0.0 0.00 0.00 0.00 79 1007.9
20260509120005 46 321 0.0 0.0 0.00 0.00 0.00 79 1007.9
20260509115506 45 321 0.0 0.0 0.00 0.00 0.00 80 1007.8
20260509115011 45 321 0.0 0.0 0.00 0.00 0.00 79 1007.7
20260509114503 45 321 0.0 0.0 0.00 0.00 0.00 79 1007.6
20260509114002 45 321 0.0 0.0 0.00 0.00 0.00 80 1007.6
20260509113503 45 321 0.0 0.0 0.00 0.00 0.00 79 1007.5
20260509113004 45 321 0.0 0.0 0.00 0.00 0.00 79 1007.6
20260509112504 45 321 0.0 0.0 0.00 0.00 0.00 78 1007.5
20260509112003 45 321 0.0 0.0 0.00 0.00 0.00 77 1007.5
20260509111508 45 321 0.0 0.0 0.00 0.00 0.00 76 1007.5
20260509111010 45 321 0.0 0.0 0.00 0.00 0.00 77 1007.4
20260509110502 45 321 0.0 0.0 0.00 0.00 0.00 78 1007.4
20260509110011 45 321 0.0 0.0 0.00 0.00 0.00 76 1007.4
20260509105503 45 321 0.0 0.0 0.00 0.00 0.00 76 1007.4
20260509105005 45 321 0.0 0.0 0.00 0.00 0.00 74 1007.5
20260509104523 46 321 0.0 0.0 0.00 0.00 0.00 74 1007.5
20260509104002 46 321 0.0 0.0 0.00 0.00 0.00 73 1007.6
20260509103505 46 321 0.0 0.0 0.00 0.00 0.00 72 1007.5
20260509103006 45 321 0.0 0.0 0.00 0.00 0.00 74 1007.5
20260509102505 45 321 0.0 0.0 0.00 0.00 0.00 74 1007.5
20260509102004 45 321 0.0 0.0 0.00 0.00 0.00 74 1007.4
20260509101504 46 321 0.0 0.0 0.00 0.00 0.00 74 1007.5
20260509101003 46 321 0.0 0.0 0.00 0.00 0.00 73 1007.4
20260509100504 46 321 0.0 0.0 0.00 0.00 0.00 73 1007.4
20260509100016 46 321 0.0 0.0 0.00 0.00 0.00 73 1007.4
20260509095504 46 321 0.0 0.0 0.00 0.00 0.00 72 1007.4
20260509095004 46 321 0.0 0.0 0.00 0.00 0.00 71 1007.4
20260509094508 47 321 0.0 0.0 0.00 0.00 0.00 70 1007.4
20260509094006 47 321 0.0 0.0 0.00 0.00 0.00 71 1007.4
20260509093503 47 321 0.0 0.0 0.00 0.00 0.00 70 1007.4
20260509093017 47 321 0.0 0.0 0.00 0.00 0.00 70 1007.4
20260509092508 47 321 0.0 0.0 0.00 0.00 0.00 70 1007.4
20260509092004 48 321 0.0 0.0 0.00 0.00 0.00 69 1007.4
20260509091513 48 321 0.0 0.0 0.00 0.00 0.00 69 1007.4
20260509091008 48 321 0.0 0.0 0.00 0.00 0.00 68 1007.4
20260509090504 48 321 0.0 0.0 0.00 0.00 0.00 67 1007.4
20260509090006 48 321 0.0 0.0 0.00 0.00 0.00 67 1007.4
20260509085503 48 321 0.0 0.0 0.00 0.00 0.00 67 1007.4
20260509085003 48 321 0.0 0.0 0.00 0.00 0.00 66 1007.4
20260509084509 49 321 0.0 0.0 0.00 0.00 0.00 66 1007.3
20260509084003 49 321 0.0 0.0 0.00 0.00 0.00 65 1007.2
20260509083509 49 321 0.0 0.0 0.00 0.00 0.00 67 1007.2
20260509083015 49 321 0.0 0.0 0.00 0.00 0.00 66 1007.2
20260509082503 49 321 0.0 0.0 0.00 0.00 0.00 65 1007.2
20260509082007 49 321 0.0 0.0 0.00 0.00 0.00 64 1007.3
20260509081512 50 321 0.0 0.0 0.00 0.00 0.00 64 1007.3
20260509081007 50 321 0.0 0.0 0.00 0.00 0.00 64 1007.3
20260509080507 50 321 0.0 0.0 0.00 0.00 0.00 63 1007.3
20260509080010 51 321 0.0 0.0 0.00 0.00 0.00 63 1007.2
20260509075506 51 321 0.0 0.0 0.00 0.00 0.00 62 1007.3
20260509075006 51 321 0.0 0.0 0.00 0.00 0.00 62 1007.4
20260509074508 51 321 0.0 0.0 0.00 0.00 0.00 61 1007.4
20260509074007 52 321 0.0 0.9 0.00 0.00 0.00 59 1007.4
20260509073503 52 321 0.0 0.9 0.00 0.00 0.00 60 1007.4
20260509073011 52 321 0.0 0.9 0.00 0.00 0.00 59 1007.4
20260509072507 52 321 0.0 0.0 0.00 0.00 0.00 60 1007.4
20260509072004 53 321 0.0 0.9 0.00 0.00 0.00 58 1007.4
20260509071506 53 321 0.0 0.9 0.00 0.00 0.00 59 1007.4
20260509071004 53 321 0.0 0.0 0.00 0.00 0.00 57 1007.4
20260509070507 53 321 0.0 0.0 0.00 0.00 0.00 57 1007.4
20260509070020 54 321 0.0 0.9 0.00 0.00 0.00 55 1007.5
20260509065511 54 321 0.0 0.9 0.00 0.00 0.00 54 1007.5
20260509065007 55 321 0.0 1.7 0.00 0.00 0.00 53 1007.5
20260509064528 55 321 0.0 1.7 0.00 0.00 0.00 53 1007.6
20260509064004 55 321 0.0 2.6 0.00 0.00 0.00 52 1007.6
20260509063506 56 321 0.0 2.6 0.00 0.00 0.00 51 1007.6
20260509063006 56 320 0.0 0.9 0.00 0.00 0.00 52 1007.7
20260509062508 56 320 0.0 0.9 0.00 0.00 0.00 52 1007.6
20260509062008 56 320 0.0 0.9 0.00 0.00 0.00 53 1007.7
20260509061532 56 320 0.0 0.9 0.00 0.00 0.00 53 1007.7
20260509061009 57 320 0.0 2.6 0.00 0.00 0.00 51 1007.6
20260509060507 57 320 0.0 2.6 0.00 0.00 0.00 50 1007.6